Location: Asheville, NC
(35.6000°N, 82.5500°W)
Time: 17:13:41
(UTC-05:00)

Vanguard 3 - Pass Details

Date: 12 December 2017
Orbit: 508 x 3264 km, 33.4° (Epoch: 20 January)

Event Time Altitude Azimuth Distance (km) Brightness Sun altitude
Rises 19:23:54 0° 263° (W) 3,167 11.6 -24.9°
Reaches altitude 10° 19:26:48 10° 242° (WSW) 2,539 10.6 -25.5°
Maximum altitude 19:30:40 17° 202° (SSW) 2,468 9.9 -26.3°
Drops below altitude 10° 19:35:52 10° 165° (SSE) 3,582 10.4 -27.3°
Sets 19:41:13 0° 149° (SSE) 5,178 11.1 -28.4°
